Location: Agadir Mansour Mhndou
(31.2424°N, 8.7730°W)
Time: 05:07:57
(UTC+00:00)

Cosmos 2297 Rocket - Pass Details

Date: 16 October 2021
Orbit: 839 x 843 km, 71.0° (Epoch: 28 November)

Event Time Altitude Azimuth Distance (km) Brightness Sun altitude
Rises 19:02:34 0° 331° (NNW) 3,398 5.7 -13.7°
Reaches altitude 10° 19:05:07 10° 325° (NW) 2,461 5.1 -14.2°
Maximum altitude 19:10:25 43° 255° (WSW) 1,174 3.5 -15.4°
Drops below altitude 10° 19:15:41 10° 186° (S) 2,451 4.7 -16.5°
Sets 19:18:13 0° 179° (S) 3,382 5.3 -17.0°
